Lewisburg, WV

11:48 AM EDT on May 24, 2018 (GMT -0400)
Greenbrier Valley

Weather History for KLWB - October, 2011

Change the Weather History Date:

Monday, October 17, 2011

  Actual Average Record
Temperature  
Mean Temperature 65 °F -  
Max Temperature 71 °F 66 °F 77 °F (1998)
Min Temperature 59 °F 38 °F 24 °F (1995)
Growing Degree Days 15 (Base 50)    
Moisture  
Dew Point 40 °F    
Average Humidity 41    
Maximum Humidity 59    
Minimum Humidity 23    
Precipitation  
Precipitation 0.00 in - - ()
Sea Level Pressure  
Sea Level Pressure 29.91 in    
Wind  
Wind Speed 8 mph (West)    
Max Wind Speed 16 mph    
Max Gust Speed 23 mph    
Visibility 10 miles    
Events      
Averages and records for this station are not official NWS values.
T = Trace of Precipitation, MM = Missing Value Source: NWS Daily Summary

Daily Weather History Graph

Daily Weather History Graph

Search for Another Location

Airport or City:

Astronomy

Oct. 17, 2011 Rise Set
Actual Time 7:31 AM EDT 6:41 PM EDT
Civil Twilight 7:05 AM EDT 7:08 PM EDT
Nautical Twilight 6:34 AM EDT 7:38 PM EDT
Astronomical Twilight 6:04 AM EDT 8:09 PM EDT
Moon 10:25 PM EDT (10/17) 12:32 PM EDT (10/17)
Length of Visible Light 12h 03m
Length of Day
11h 10m
Waning Gibbous, 74% of the Moon is Illuminated
Oct 17
Waning Gibbous
Oct 19
Last Quarter
Oct 26
New
Nov 2
First Quarter
Nov 10
Full

Hourly Weather History & Observations

Time (EDT) Temp. Dew Point Humidity Pressure Visibility Wind Dir Wind Speed Gust Speed Precip Events Conditions
12:15 AM 62.6 °F 41.0 °F 45% 29.92 in 10.0 mi WSW 6.9 mph - N/A   Clear
12:35 AM 62.6 °F 41.0 °F 45% 29.92 in 10.0 mi SW 8.1 mph - N/A   Clear
12:55 AM 62.6 °F 41.0 °F 45% 29.91 in 10.0 mi SW 8.1 mph - N/A   Clear
1:15 AM 62.6 °F 41.0 °F 45% 29.91 in 10.0 mi WSW 10.4 mph - N/A   Clear
1:35 AM 64.4 °F 41.0 °F 42% 29.91 in 10.0 mi WSW 9.2 mph - N/A   Clear
1:55 AM 62.6 °F 41.0 °F 45% 29.91 in 10.0 mi WSW 8.1 mph - N/A   Mostly Cloudy
2:15 AM 64.4 °F 41.0 °F 42% 29.90 in 10.0 mi SW 10.4 mph 16.1 mph N/A   Overcast
2:35 AM 62.6 °F 41.0 °F 45% 29.90 in 10.0 mi WSW 9.2 mph - N/A   Mostly Cloudy
2:55 AM 62.6 °F 41.0 °F 45% 29.89 in 10.0 mi WSW 9.2 mph - N/A   Scattered Clouds
3:55 AM 64.4 °F 42.8 °F 45% 29.88 in 10.0 mi WSW 10.4 mph - N/A   Clear
4:15 AM 64.4 °F 42.8 °F 45% 29.89 in 10.0 mi WSW 12.7 mph - N/A   Clear
4:35 AM 64.4 °F 42.8 °F 45% 29.89 in 10.0 mi WSW 10.4 mph 17.3 mph N/A   Scattered Clouds
4:55 AM 64.4 °F 42.8 °F 45% 29.89 in 10.0 mi WSW 9.2 mph - N/A   Clear
5:15 AM 64.4 °F 42.8 °F 45% 29.89 in 10.0 mi WSW 13.8 mph 19.6 mph N/A   Scattered Clouds
5:35 AM 64.4 °F 42.8 °F 45% 29.89 in 10.0 mi WSW 11.5 mph - N/A   Mostly Cloudy
6:15 AM 64.4 °F 44.6 °F 49% 29.90 in 10.0 mi SW 11.5 mph 16.1 mph N/A   Scattered Clouds
6:35 AM 62.6 °F 44.6 °F 52% 29.90 in 10.0 mi WSW 8.1 mph - N/A   Scattered Clouds
6:55 AM 62.6 °F 44.6 °F 52% 29.91 in 10.0 mi WSW 10.4 mph - N/A   Scattered Clouds
7:15 AM 62.6 °F 44.6 °F 52% 29.90 in 10.0 mi West 6.9 mph - N/A   Scattered Clouds
7:35 AM 62.6 °F 44.6 °F 52% 29.91 in 10.0 mi NW 4.6 mph - N/A   Scattered Clouds
7:55 AM 59.0 °F 44.6 °F 59% 29.92 in 10.0 mi NW 4.6 mph - N/A   Clear
8:15 AM 59.0 °F 44.6 °F 59% 29.93 in 10.0 mi NNW 9.2 mph - N/A   Clear
8:35 AM 59.0 °F 44.6 °F 59% 29.95 in 10.0 mi NW 5.8 mph - N/A   Clear
8:55 AM 59.0 °F 44.6 °F 59% 29.95 in 10.0 mi WNW 4.6 mph - N/A   Clear
9:15 AM 59.0 °F 42.8 °F 55% 29.96 in 10.0 mi WNW 6.9 mph - N/A   Clear
9:35 AM 59.0 °F 44.6 °F 59% 29.96 in 10.0 mi WNW 4.6 mph - N/A   Clear
9:55 AM 60.8 °F 44.6 °F 55% 29.96 in 10.0 mi NW 3.5 mph - N/A   Clear
10:15 AM 60.8 °F 44.6 °F 55% 29.96 in 10.0 mi WSW 5.8 mph - N/A   Clear
10:35 AM 62.6 °F 44.6 °F 52% 29.95 in 10.0 mi West 3.5 mph - N/A   Clear
10:55 AM 62.6 °F 44.6 °F 52% 29.95 in 10.0 mi WSW 6.9 mph 16.1 mph N/A   Clear
11:15 AM 64.4 °F 44.6 °F 49% 29.94 in 10.0 mi WSW 11.5 mph 17.3 mph N/A   Clear
11:35 AM 68.0 °F 46.4 °F 46% 29.93 in 10.0 mi WNW 11.5 mph 19.6 mph N/A   Clear
11:55 AM 68.0 °F 46.4 °F 46% 29.93 in 10.0 mi WSW 16.1 mph 21.9 mph N/A   Clear
12:15 PM 69.8 °F 46.4 °F 43% 29.92 in 10.0 mi WSW 10.4 mph 17.3 mph N/A   Clear
12:35 PM 69.8 °F 46.4 °F 43% 29.92 in 10.0 mi NW 8.1 mph - N/A   Clear
12:55 PM 69.8 °F 44.6 °F 40% 29.92 in 10.0 mi NW 6.9 mph 20.7 mph N/A   Clear
1:15 PM 69.8 °F 42.8 °F 38% 29.91 in 10.0 mi NW 10.4 mph 18.4 mph N/A   Clear
1:35 PM 71.6 °F 39.2 °F 31% 29.91 in 10.0 mi WNW 5.8 mph 23.0 mph N/A   Clear
1:55 PM 71.6 °F 41.0 °F 33% 29.90 in 10.0 mi WNW 10.4 mph 19.6 mph N/A   Clear
2:15 PM 69.8 °F 41.0 °F 35% 29.90 in 10.0 mi NW 11.5 mph 20.7 mph N/A   Clear
2:55 PM 71.6 °F 37.4 °F 29% 29.89 in 10.0 mi NW 11.5 mph 17.3 mph N/A   Clear
3:15 PM 71.6 °F 33.8 °F 25% 29.88 in 10.0 mi WNW 5.8 mph - N/A   Clear
3:35 PM 71.6 °F 32.0 °F 23% 29.89 in 10.0 mi NW 9.2 mph 16.1 mph N/A   Clear
3:55 PM 71.6 °F 32.0 °F 23% 29.89 in 10.0 mi NNW 8.1 mph - N/A   Clear
4:15 PM 71.6 °F 32.0 °F 23% 29.89 in 10.0 mi WNW 5.8 mph - N/A   Clear
4:35 PM 71.6 °F 32.0 °F 23% 29.89 in 10.0 mi WNW 4.6 mph - N/A   Clear
4:55 PM 71.6 °F 32.0 °F 23% 29.88 in 10.0 mi NW 5.8 mph - N/A   Clear
5:15 PM 71.6 °F 32.0 °F 23% 29.88 in 10.0 mi West 5.8 mph - N/A   Clear
5:35 PM 71.6 °F 32.0 °F 23% 29.89 in 10.0 mi WNW 4.6 mph - N/A   Clear
5:55 PM 69.8 °F 32.0 °F 25% 29.89 in 10.0 mi NW 5.8 mph - N/A   Clear
6:15 PM 69.8 °F 32.0 °F 25% 29.89 in 10.0 mi NW 3.5 mph - N/A   Clear
6:35 PM 68.0 °F 32.0 °F 26% 29.89 in 10.0 mi Calm Calm - N/A   Clear
6:55 PM 68.0 °F 32.0 °F 26% 29.90 in 10.0 mi Calm Calm - N/A   Clear
7:15 PM 66.2 °F 32.0 °F 28% 29.91 in 10.0 mi Calm Calm - N/A   Clear
7:35 PM 64.4 °F 32.0 °F 30% 29.91 in 10.0 mi Calm Calm - N/A   Clear
7:55 PM 60.8 °F 35.6 °F 39% 29.91 in 10.0 mi Calm Calm - N/A   Clear
8:15 PM 57.2 °F 37.4 °F 48% 29.91 in 10.0 mi Calm Calm - N/A   Clear
8:35 PM 57.2 °F 37.4 °F 48% 29.91 in 10.0 mi Calm Calm - N/A   Clear
8:55 PM 57.2 °F 37.4 °F 48% 29.91 in 10.0 mi Calm Calm - N/A   Scattered Clouds
9:15 PM 55.4 °F 37.4 °F 51% 29.91 in 10.0 mi Calm Calm - N/A   Overcast
9:35 PM 55.4 °F 37.4 °F 51% 29.91 in 10.0 mi Calm Calm - N/A   Overcast
9:55 PM 55.4 °F 37.4 °F 51% 29.91 in 10.0 mi Calm Calm - N/A   Mostly Cloudy
10:15 PM 59.0 °F 37.4 °F 45% 29.91 in 10.0 mi Calm Calm - N/A   Mostly Cloudy
10:35 PM 55.4 °F 37.4 °F 51% 29.91 in 10.0 mi Calm Calm - N/A   Mostly Cloudy
10:55 PM 57.2 °F 39.2 °F 51% 29.91 in 10.0 mi Calm Calm - N/A   Scattered Clouds
11:15 PM 53.6 °F 37.4 °F 54% 29.91 in 10.0 mi Calm Calm - N/A   Mostly Cloudy
11:35 PM 53.6 °F 37.4 °F 54% 29.90 in 10.0 mi Calm Calm - N/A   Scattered Clouds
11:55 PM 55.4 °F 39.2 °F 54% 29.90 in 10.0 mi Calm Calm - N/A   Mostly Cloudy